Cloud_Cover
100 100 99 70 5 95 100 100 100 100 100 100 99 14 91 100 100 100 100 100 100 100 100 100 100 100 100 100 100 100 100 100 100 100 100 15 5 24
93 99 99 89 49 100 95 100 100 100 100 90 96 78 4 3 100 100 100 100 100 100 100 100 100 100 100 100 100 100 100 100 100 100 100 100 56 36
98 100 91 74 73 71 90 100 100 100 100 100 100 100 100 99 99 100 100 100 100 100 100 100 100 100 100 100 100 100 100 100 100 100 100 100 100 100
96 100 86 82 73 65 97 100 100 100 100 100 100 100 100 100 100 97 99 100 100 100 100 100 100 100 100 100 100 100 100 100 100 100 100 100 100 100
41 98 90 86 96 87 100 100 100 100 100 100 100 100 100 100 100 100 92 100 100 100 100 100 100 100 100 100 100 100 100 100 100 100 100 100 100 100
5 94 97 99 99 91 100 98 100 100 100 100 100 100 100 100 99 91 100 98 100 100 100 100 100 100 100 100 100 100 100 100 100 100 100 100 100 100
5 53 99 98 89 100 100 100 100 100 100 100 100 100 100 100 100 100 100 92 100 99 100 100 100 100 100 100 100 100 100 100 100 100 100 100 100 100
5 5 64 82 84 100 100 100 100 100 100 100 100 100 100 100 100 96 100 100 100 86 100 25 100 100 100 100 100 100 100 100 100 100 100 100 100 100
5 5 5 97 100 100 100 100 100 100 100 100 100 100 100 100 100 100 100 100 100 100 100 100 100 100 100 100 100 100 100 100 100 100 100 100 100 100
5 7 71 100 100 100 100 100 100 100 100 100 100 100 100 100 100 100 100 100 100 100 100 100 100 100 100 100 100 100 100 100 100 100 100 100 100 100
49 28 100 100 100 100 100 100 100 92 68 68 100 100 100 100 93 99 100 100 100 100 100 100 100 100 100 100 100 100 100 100 100 100 100 100 100 100
94 76 91 100 100 100 100 100 100 100 19 5 5 36 89 77 78 77 100 100 100 99 97 99 100 100 100 100 100 100 100 100 100 100 100 100 100 100
98 96 37 100 100 100 100 100 100 100 100 85 42 5 8 98 94 18 18 90 100 100 95 98 94 100 100 100 100 100 100 100 100 100 100 100 100 100
91 98 74 100 100 100 100 96 100 100 100 98 75 99 100 99 80 22 38 5 34 51 57 64 98 100 100 100 100 100 100 100 100 100 100 100 100 100
9 71 17 13 99 100 100 100 100 100 99 100 100 100 100 97 100 8 5 5 64 17 93 100 100 100 99 100 99 100 100 100 100 100 100 100 100 100
20 46 5 5 5 66 100 100 100 99 94 100 100 100 55 75 100 89 95 47 16 55 100 100 100 100 100 100 100 85 100 100 100 100 100 100 100 100
5 5 5 5 5 5 5 5 45 84 9 92 100 100 61 95 100 100 100 100 100 97 79 100 100 100 100 100 97 99 100 100 100 100 100 100 100 100
5 61 54 65 41 9 13 73 55 96 61 20 90 100 100 100 100 100 98 100 100 100 100 96 100 100 100 100 100 100 87 100 100 100 100 100 100 100
12 61 62 80 65 47 41 26 88 7 98 5 52 100 99 99 100 100 100 100 100 100 100 100 71 100 96 100 100 92 100 99 100 100 100 100 100 100
37 53 53 69 61 69 56 55 5 5 92 13 5 44 100 100 100 100 100 100 100 100 100 64 94 100 100 100 100 11 54 100 100 100 100 97 100 100
54 12 53 62 59 60 41 42 48 39 85 37 5 5 92 100 100 100 100 100 100 100 100 100 88 37 97 53 97 100 40 11 100 100 100 100 100 100
60 61 54 55 57 52 6 53 55 64 95 34 5 5 50 92 100 100 100 100 100 100 82 100 97 34 34 100 100 100 66 18 7 100 100 100 100 100
33 61 55 54 56 48 5 37 59 75 64 31 5 5 74 86 80 100 100 100 100 95 74 100 100 5 88 100 100 95 41 64 6 5 96 100 100 100